CW9825 Weather Reports


Display with metric or nautical units.
time (UTC)temp
F
wind
direction
speed
MPH
gust
MPH
rain 1hr
in
rain 24hr
in
rain mn
in
humidity
%
barometer
mb
20260507164057 54 282 5.0 14.0 0.00 0.00 0.00 37 1010.7
20260507163557 53 269 4.0 14.0 0.00 0.00 0.00 36 1010.8
20260507163056 55 268 5.0 15.0 0.00 0.00 0.00 38 1010.9
20260507162557 55 88 4.0 15.0 0.00 0.00 0.00 38 1010.7
20260507162056 54 269 6.0 15.0 0.00 0.00 0.00 40 1010.9
20260507161602 53 263 7.0 15.0 0.00 0.00 0.00 41 1010.9
20260507161053 53 281 6.0 17.0 0.00 0.00 0.00 41 1011.0
20260507160553 54 282 7.0 12.0 0.00 0.00 0.00 42 1011.1
20260507160059 53 282 6.0 12.0 0.00 0.00 0.00 43 1011.1
20260507155549 53 279 5.0 9.0 0.00 0.00 0.00 45 1011.1
20260507155048 53 272 4.0 9.0 0.00 0.00 0.00 46 1011.2
20260507154547 52 281 3.0 7.0 0.00 0.00 0.00 48 1011.1
20260507154044 52 198 2.0 14.0 0.00 0.00 0.00 47 1011.2
20260507153543 51 281 7.0 14.0 0.00 0.00 0.00 48 1011.1
20260507153042 51 254 2.0 10.0 0.00 0.00 0.00 48 1011.1
20260507152541 51 246 4.0 12.0 0.00 0.00 0.00 49 1011.2
20260507152039 51 331 5.0 12.0 0.00 0.00 0.00 49 1011.2
20260507151538 51 249 6.0 14.0 0.00 0.00 0.00 49 1011.2
20260507151036 50 291 5.0 9.0 0.00 0.00 0.00 50 1011.3
20260507150535 50 278 3.0 12.0 0.00 0.00 0.00 52 1011.4
20260507150039 49 199 2.0 14.0 0.00 0.00 0.00 54 1011.4
20260507145533 48 274 6.0 12.0 0.00 0.00 0.00 54 1011.4
20260507145033 48 263 5.0 11.0 0.00 0.00 0.00 55 1011.4
20260507144531 47 275 3.0 10.0 0.00 0.00 0.00 56 1011.5
20260507144029 47 311 3.0 10.0 0.00 0.00 0.00 57 1011.7
20260507143526 46 257 1.0 7.0 0.00 0.00 0.00 59 1011.6
20260507143026 45 249 2.0 7.0 0.00 0.00 0.00 62 1011.7
20260507142524 44 277 2.0 7.0 0.00 0.00 0.00 65 1011.8
20260507142027 42 250 3.0 6.0 0.00 0.00 0.00 68 1011.8
20260507141526 41 222 2.0 7.0 0.00 0.00 0.00 69 1011.7
20260507141020 40 221 1.0 8.0 0.00 0.00 0.00 70 1011.7
20260507140521 39 254 2.0 8.0 0.00 0.00 0.00 71 1011.9
20260507140017 39 231 1.0 6.0 0.00 0.00 0.00 71 1011.9
20260507135515 38 209 2.0 5.0 0.00 0.00 0.00 71 1011.9
20260507135014 38 262 1.0 6.0 0.00 0.00 0.00 72 1011.9
20260507134513 37 192 1.0 6.0 0.00 0.00 0.00 72 1011.9
20260507134011 37 221 2.0 5.0 0.00 0.00 0.00 72 1011.8
20260507133510 37 257 2.0 6.0 0.00 0.00 0.00 73 1011.8
20260507133011 36 255 2.0 6.0 0.00 0.00 0.00 73 1011.8
20260507132512 36 207 3.0 6.0 0.00 0.00 0.00 73 1011.8
20260507132007 35 198 3.0 6.0 0.00 0.00 0.00 74 1011.8
20260507131509 35 223 2.0 4.0 0.00 0.00 0.00 74 1011.8
20260507131005 34 186 2.0 4.0 0.00 0.00 0.00 74 1011.8
20260507130505 34 186 1.0 4.0 0.00 0.00 0.00 73 1011.8
20260507130005 34 186 2.0 4.0 0.00 0.00 0.00 73 1011.8
20260507125504 34 180 0.0 3.0 0.00 0.00 0.00 73 1011.8
20260507125108 34 175 1.0 4.0 0.00 0.00 0.00 73 1011.8
20260507124503 33 169 2.0 5.0 0.00 0.00 0.00 74 1011.8
20260507124002 32 161 0.0 3.0 0.00 0.00 0.00 76 1011.9
20260507123600 31 161 0.0 3.0 0.00 0.00 0.00 77 1011.9
20260507123059 30 161 0.0 2.0 0.00 0.00 0.00 77 1011.8
20260507122559 29 161 0.0 2.0 0.00 0.00 0.00 79 1011.8
20260507122058 28 161 0.0 0.0 0.00 0.00 0.00 79 1011.8
20260507121559 28 161 0.0 0.0 0.00 0.00 0.00 80 1011.9
20260507121058 27 161 0.0 0.0 0.00 0.00 0.00 80 1011.9
20260507120557 27 161 0.0 0.0 0.00 0.00 0.00 80 1011.7
20260507120055 27 161 0.0 0.0 0.00 0.00 0.00 81 1011.7
20260507115554 26 161 0.0 0.0 0.00 0.00 0.00 81 1011.7
20260507115054 26 161 0.0 0.0 0.00 0.00 0.00 81 1011.6
20260507114603 26 161 0.0 0.0 0.00 0.00 0.00 81 1011.5
20260507114051 25 161 0.0 0.0 0.00 0.00 0.00 81 1011.5
20260507113550 25 161 0.0 0.0 0.00 0.00 0.00 81 1011.5
20260507113050 25 161 0.0 0.0 0.00 0.00 0.00 81 1011.5
20260507112550 25 161 0.0 0.0 0.00 0.00 0.00 81 1011.4
20260507112052 24 161 0.0 0.0 0.00 0.00 0.00 81 1011.4
20260507111549 24 161 0.0 0.0 0.00 0.00 0.00 81 1011.4
20260507111048 24 161 0.0 0.0 0.00 0.00 0.00 80 1011.4
20260507110551 24 161 0.0 1.0 0.00 0.00 0.00 80 1011.4
20260507110048 25 161 0.0 2.0 0.00 0.00 0.00 80 1011.4
20260507105546 25 161 0.0 2.0 0.00 0.00 0.00 79 1011.4
20260507105049 25 161 0.0 3.0 0.00 0.00 0.00 79 1011.4
20260507104546 25 161 1.0 4.0 0.00 0.00 0.00 79 1011.5
20260507104045 25 161 1.0 5.0 0.00 0.00 0.00 79 1011.4
20260507103545 25 161 2.0 5.0 0.00 0.00 0.00 79 1011.4
20260507103048 25 162 1.0 5.0 0.00 0.00 0.00 79 1011.4
20260507102543 25 162 2.0 5.0 0.00 0.00 0.00 79 1011.5
20260507102043 25 163 1.0 3.0 0.00 0.00 0.00 79 1011.4
20260507101546 25 163 0.0 3.0 0.00 0.00 0.00 79 1011.5
20260507101041 25 163 1.0 4.0 0.00 0.00 0.00 78 1011.5
20260507100540 25 163 1.0 5.0 0.00 0.00 0.00 78 1011.5
20260507100040 26 165 2.0 5.0 0.00 0.00 0.00 78 1011.6
20260507095539 26 169 2.0 5.0 0.00 0.00 0.00 78 1011.5
20260507095038 26 163 2.0 3.0 0.00 0.00 0.00 78 1011.6
20260507094549 26 165 1.0 3.0 0.00 0.00 0.00 77 1011.6
20260507094036 26 165 1.0 3.0 0.00 0.00 0.00 77 1011.7
20260507093536 26 167 1.0 5.0 0.00 0.00 0.00 77 1011.7
20260507093037 26 167 2.0 5.0 0.00 0.00 0.00 77 1011.8
20260507092535 26 169 2.0 4.0 0.00 0.00 0.00 77 1011.8
20260507092035 27 170 1.0 3.0 0.00 0.00 0.00 76 1011.7
20260507091535 27 170 1.0 4.0 0.00 0.00 0.00 77 1011.7
20260507091035 27 171 2.0 4.0 0.00 0.00 0.00 77 1011.7
20260507090533 26 175 1.0 4.0 0.00 0.00 0.00 77 1011.8
20260507090032 26 177 1.0 4.0 0.00 0.00 0.00 76 1011.7
20260507085531 26 182 1.0 3.0 0.00 0.00 0.00 76 1011.8
20260507085031 26 182 0.0 3.0 0.00 0.00 0.00 76 1011.8
20260507084536 26 182 1.0 3.0 0.00 0.00 0.00 76 1011.8
20260507084029 26 183 1.0 3.0 0.00 0.00 0.00 75 1011.8
20260507083528 27 184 1.0 3.0 0.00 0.00 0.00 75 1011.8
20260507083027 27 184 0.0 3.0 0.00 0.00 0.00 75 1011.9
20260507082527 27 184 0.0 3.0 0.00 0.00 0.00 74 1011.8
20260507082125 27 185 1.0 3.0 0.00 0.00 0.00 74 1011.8
20260507081526 27 187 0.0 3.0 0.00 0.00 0.00 74 1011.8
20260507081023 27 187 0.0 3.0 0.00 0.00 0.00 74 1011.8
20260507080523 27 188 0.0 3.0 0.00 0.00 0.00 73 1011.7
20260507080021 28 188 0.0 0.0 0.00 0.00 0.00 73 1011.6
20260507075520 28 189 0.0 0.0 0.00 0.00 0.00 73 1011.7
20260507075020 28 189 0.0 0.0 0.00 0.00 0.00 73 1011.7
20260507074520 28 189 0.0 0.0 0.00 0.00 0.00 73 1011.7
20260507074018 28 189 0.0 0.0 0.00 0.00 0.00 73 1011.7
20260507073521 28 189 0.0 0.0 0.00 0.00 0.00 72 1011.7
20260507073018 28 189 0.0 2.0 0.00 0.00 0.00 72 1011.8
20260507072517 28 188 0.0 2.0 0.00 0.00 0.00 72 1011.8
20260507072016 28 188 0.0 3.0 0.00 0.00 0.00 71 1011.8
20260507071518 28 188 0.0 3.0 0.00 0.00 0.00 71 1011.8
20260507071014 28 189 0.0 3.0 0.00 0.00 0.00 71 1011.8
20260507070514 29 190 0.0 0.0 0.00 0.00 0.00 71 1011.8
20260507070020 29 190 0.0 0.0 0.00 0.00 0.00 71 1011.9
20260507065513 29 190 0.0 1.0 0.00 0.00 0.00 71 1011.9
20260507065015 29 190 0.0 2.0 0.00 0.00 0.00 70 1012.0
20260507064514 29 190 1.0 2.0 0.00 0.00 0.00 69 1012.0
20260507064008 30 190 0.0 3.0 0.00 0.00 0.00 68 1012.0
20260507063507 30 190 1.0 3.0 0.00 0.00 0.00 67 1012.1
20260507063007 31 190 0.0 3.0 0.00 0.00 0.00 67 1012.1
20260507062504 31 190 1.0 3.0 0.00 0.00 0.00 67 1012.1
20260507062103 31 190 0.0 2.0 0.00 0.00 0.00 66 1012.2
20260507061502 32 190 0.0 2.0 0.00 0.00 0.00 66 1012.2
20260507061003 32 190 0.0 2.0 0.00 0.00 0.00 66 1012.2
20260507060601 32 190 0.0 4.0 0.00 0.00 0.00 66 1012.2
20260507060101 33 190 1.0 4.0 0.00 0.00 0.00 65 1012.2
20260507055601 33 190 1.0 3.0 0.00 0.00 0.00 64 1012.2
20260507055101 33 193 1.0 3.0 0.00 0.00 0.00 64 1012.1
20260507054556 34 194 1.0 3.0 0.00 0.00 0.00 63 1012.2
20260507054054 34 196 0.0 2.0 0.00 0.00 0.00 63 1012.2
20260507053553 34 196 0.0 4.0 0.00 0.00 0.00 63 1012.3
20260507053102 35 196 1.0 4.0 0.00 0.00 0.00 62 1012.4
20260507052551 35 187 0.0 3.0 0.00 0.00 0.00 62 1012.3
20260507052051 35 188 0.0 3.0 0.00 0.00 0.00 61 1012.3
20260507051550 35 188 0.0 3.0 0.00 0.00 0.00 61 1012.5
20260507051049 36 188 2.0 5.0 0.00 0.00 0.00 61 1012.5
20260507050548 36 188 1.0 6.0 0.00 0.00 0.00 61 1012.5
20260507050047 36 207 3.0 7.0 0.00 0.00 0.00 61 1012.5
20260507045547 36 194 3.0 7.0 0.00 0.00 0.00 61 1012.4
20260507045047 36 191 2.0 5.0 0.00 0.00 0.00 60 1012.5
20260507044558 36 199 3.0 6.0 0.00 0.00 0.00 60 1012.6
20260507044045 36 209 4.0 6.0 0.00 0.00 0.00 61 1012.7
20260507043544 36 202 2.0 6.0 0.00 0.00 0.00 61 1012.8
20260507043048 36 177 1.0 4.0 0.00 0.00 0.00 60 1012.7
20260507042545 36 177 1.0 4.0 0.00 0.00 0.00 60 1012.7
20260507042046 36 178 1.0 4.0 0.00 0.00 0.00 59 1012.7
20260507041547 37 182 2.0 4.0 0.00 0.00 0.00 59 1012.8
20260507041045 37 194 1.0 4.0 0.00 0.00 0.00 59 1012.9
20260507040542 37 195 1.0 4.0 0.00 0.00 0.00 58 1013.0
20260507040045 37 190 1.0 5.0 0.00 0.00 0.00 57 1013.1
20260507035541 38 188 2.0 5.0 0.00 0.00 0.00 57 1013.1
20260507035041 38 180 1.0 5.0 0.00 0.00 0.00 57 1013.2
20260507034544 38 175 2.0 5.0 0.00 0.00 0.00 57 1013.2
20260507034039 38 175 0.0 4.0 0.00 0.00 0.00 57 1013.3
20260507033539 38 171 1.0 5.0 0.00 0.00 0.00 57 1013.3
20260507033050 38 184 1.0 5.0 0.00 0.00 0.00 57 1013.3
20260507032539 37 179 1.0 6.0 0.00 0.00 0.00 57 1013.4
20260507032041 38 191 1.0 5.0 0.00 0.00 0.00 57 1013.4
20260507031553 38 190 0.0 5.0 0.00 0.00 0.00 56 1013.4
20260507031041 38 177 2.0 5.0 0.00 0.00 0.00 56 1013.5
20260507030538 38 192 1.0 3.0 0.00 0.00 0.00 56 1013.5
20260507030051 38 193 0.0 4.0 0.00 0.00 0.00 56 1013.5
20260507025536 38 194 1.0 4.0 0.00 0.00 0.00 56 1013.6
20260507025036 39 192 1.0 4.0 0.00 0.00 0.00 55 1013.6
20260507024555 39 193 1.0 4.0 0.00 0.00 0.00 55 1013.6
20260507024035 39 208 1.0 4.0 0.00 0.00 0.00 55 1013.7
20260507023535 40 215 1.0 3.0 0.00 0.00 0.00 54 1013.6
20260507023035 40 218 1.0 3.0 0.00 0.00 0.00 54 1013.6
20260507022535 40 219 0.0 3.0 0.00 0.00 0.00 54 1013.6
20260507022036 41 219 0.0 3.0 0.00 0.00 0.00 54 1013.6
20260507021537 41 221 0.0 3.0 0.00 0.00 0.00 54 1013.6
20260507021035 41 222 1.0 3.0 0.00 0.00 0.00 53 1013.7
20260507020536 41 223 1.0 3.0 0.00 0.00 0.00 52 1013.7
20260507020047 42 223 1.0 3.0 0.00 0.00 0.00 52 1013.6
20260507015535 42 223 0.0 3.0 0.00 0.00 0.00 52 1013.7
20260507015039 42 223 0.0 5.0 0.00 0.00 0.00 52 1013.7
20260507014543 42 223 2.0 5.0 0.00 0.00 0.00 51 1013.7
20260507014034 43 234 0.0 2.0 0.00 0.00 0.00 51 1013.7
20260507013537 43 234 0.0 3.0 0.00 0.00 0.00 50 1013.6
20260507013039 43 234 1.0 3.0 0.00 0.00 0.00 50 1013.6
20260507012534 43 235 0.0 2.0 0.00 0.00 0.00 50 1013.6
20260507012035 43 235 0.0 4.0 0.00 0.00 0.00 49 1013.7
20260507011537 43 234 1.0 4.0 0.00 0.00 0.00 49 1013.7
20260507011033 43 240 1.0 6.0 0.00 0.00 0.00 49 1013.6
20260507010533 44 237 2.0 6.0 0.00 0.00 0.00 49 1013.7
20260507010040 44 248 1.0 4.0 0.00 0.00 0.00 49 1013.7
20260507005532 44 257 1.0 6.0 0.00 0.00 0.00 49 1013.7
20260507005034 44 260 2.0 6.0 0.00 0.00 0.00 48 1013.8
20260507004533 44 250 1.0 5.0 0.00 0.00 0.00 48 1013.7
20260507004031 44 223 1.0 7.0 0.00 0.00 0.00 49 1013.8
20260507003531 44 254 2.0 8.0 0.00 0.00 0.00 49 1013.8
20260507003030 44 264 4.0 8.0 0.00 0.00 0.00 48 1013.9
20260507002529 45 273 3.0 8.0 0.00 0.00 0.00 48 1013.9
20260507002029 45 213 2.0 5.0 0.00 0.00 0.00 48 1014.0
20260507001534 44 228 2.0 5.0 0.00 0.00 0.00 48 1014.0
20260507001028 44 213 2.0 7.0 0.00 0.00 0.00 48 1014.1
20260507000527 44 268 2.0 8.0 0.00 0.00 0.00 48 1014.1
20260507000027 44 240 3.0 8.0 0.00 0.00 0.00 48 1014.2
20260506235527 45 254 0.0 8.0 0.00 0.00 0.00 48 1014.3
20260506235026 45 261 2.0 8.0 0.00 0.00 0.00 49 1014.3
20260506234526 45 240 3.0 8.0 0.00 0.00 0.00 49 1014.3
20260506234025 44 248 2.0 7.0 0.00 0.00 0.00 49 1014.3
20260506233524 44 300 2.0 8.0 0.00 0.00 0.00 49 1014.3
20260506233025 44 310 2.0 9.0 0.00 0.00 0.00 49 1014.3
20260506232524 44 270 4.0 10.0 0.00 0.00 0.00 49 1014.4
20260506232023 44 248 4.0 10.0 0.00 0.00 0.00 48 1014.5
20260506231523 45 234 2.0 9.0 0.00 0.00 0.00 49 1014.6
20260506231022 44 273 4.0 9.0 0.00 0.00 0.00 49 1014.6
20260506230522 44 300 1.0 8.0 0.00 0.00 0.00 49 1014.6
20260506230022 44 305 3.0 10.0 0.00 0.00 0.00 50 1014.6
20260506225521 44 98 2.0 10.0 0.00 0.00 0.00 50 1014.7
20260506225025 44 269 3.0 9.0 0.00 0.00 0.00 50 1014.7
20260506224521 44 252 4.0 10.0 0.00 0.00 0.00 50 1014.7
20260506224019 44 262 3.0 10.0 0.00 0.00 0.00 50 1014.7
20260506223518 44 263 4.0 9.0 0.00 0.00 0.00 50 1014.8
20260506223019 44 332 5.0 9.0 0.00 0.00 0.00 51 1014.8
20260506222518 44 295 4.0 11.0 0.00 0.00 0.00 50 1014.9
20260506222018 44 334 5.0 11.0 0.00 0.00 0.00 50 1014.8
20260506221517 44 297 4.0 10.0 0.00 0.00 0.00 51 1014.9
20260506221017 44 284 4.0 12.0 0.00 0.00 0.00 52 1014.8
20260506220517 44 292 7.0 12.0 0.00 0.00 0.00 52 1014.9
20260506220017 43 342 2.0 9.0 0.00 0.00 0.00 53 1014.9
20260506215516 43 333 3.0 9.0 0.00 0.00 0.00 51 1014.9
20260506215015 44 297 4.0 8.0 0.00 0.00 0.00 52 1015.0
20260506214515 43 272 0.0 8.0 0.00 0.00 0.00 52 1015.0
20260506214015 43 303 3.0 10.0 0.00 0.00 0.00 52 1015.0
20260506213517 43 248 4.0 10.0 0.00 0.00 0.00 52 1015.1
20260506213011 43 246 3.0 8.0 0.00 0.00 0.00 52 1015.2
20260506212511 43 267 5.0 8.0 0.00 0.00 0.00 52 1015.2
20260506212013 43 298 2.0 8.0 0.00 0.00 0.00 53 1015.3
20260506211516 43 269 3.0 13.0 0.00 0.00 0.00 52 1015.3
20260506211010 43 267 4.0 13.0 0.00 0.00 0.00 52 1015.4
20260506210509 43 322 5.0 9.0 0.00 0.00 0.00 52 1015.4
20260506210015 43 265 3.0 10.0 0.00 0.00 0.00 53 1015.4
20260506205508 43 279 4.0 11.0 0.00 0.00 0.00 53 1015.5
20260506205008 43 275 2.0 8.0 0.00 0.00 0.00 53 1015.5
20260506204509 43 273 4.0 9.0 0.00 0.00 0.00 53 1015.5
20260506204007 43 287 4.0 10.0 0.00 0.00 0.00 54 1015.5
20260506203508 42 275 3.0 11.0 0.00 0.00 0.00 53 1015.5
20260506203008 43 275 6.0 11.0 0.00 0.00 0.00 54 1015.6
20260506202508 43 261 3.0 11.0 0.00 0.00 0.00 53 1015.6
20260506202008 43 280 5.0 11.0 0.00 0.00 0.00 52 1015.7
20260506201509 43 286 2.0 8.0 0.00 0.00 0.00 52 1015.6
20260506201007 43 251 2.0 8.0 0.00 0.00 0.00 52 1015.7
20260506200507 43 255 3.0 12.0 0.00 0.00 0.00 53 1015.8
20260506200006 43 273 6.0 12.0 0.00 0.00 0.00 54 1015.7
20260506195508 43 284 3.0 9.0 0.00 0.00 0.00 53 1015.7
20260506195005 43 276 4.0 10.0 0.00 0.00 0.00 53 1015.7
20260506194506 43 281 5.0 11.0 0.00 0.00 0.00 53 1015.9
20260506194006 42 292 6.0 11.0 0.00 0.00 0.00 53 1016.0
20260506193505 42 277 2.0 12.0 0.00 0.00 0.00 54 1016.0
20260506193004 42 223 5.0 12.0 0.00 0.00 0.00 54 1016.1
20260506192504 42 274 5.0 10.0 0.00 0.00 0.00 54 1016.1
20260506192006 42 294 3.0 11.0 0.00 0.00 0.00 53 1016.1
20260506191504 42 273 5.0 11.0 0.00 0.00 0.00 53 1016.2
20260506191004 42 292 3.0 7.0 0.00 0.00 0.00 53 1016.1
20260506190503 42 302 3.0 9.0 0.00 0.00 0.00 55 1016.1
20260506190004 42 333 3.0 9.0 0.00 0.00 0.00 54 1016.2
20260506185502 42 282 4.0 9.0 0.00 0.00 0.00 54 1016.3
20260506185003 42 304 4.0 12.0 0.00 0.00 0.00 54 1016.3
20260506184503 42 286 6.0 12.0 0.00 0.00 0.00 53 1016.1
20260506184002 42 271 6.0 11.0 0.00 0.00 0.00 54 1016.2
20260506183503 42 265 4.0 10.0 0.00 0.00 0.00 53 1016.3
20260506183002 42 324 4.0 10.0 0.00 0.00 0.00 53 1016.2
20260506182501 42 355 5.0 11.0 0.00 0.00 0.00 53 1016.3
20260506182001 42 270 4.0 11.0 0.00 0.00 0.00 53 1016.4
20260506181502 42 248 4.0 11.0 0.00 0.00 0.00 53 1016.3
20260506181001 42 248 4.0 10.0 0.00 0.00 0.00 53 1016.3
20260506180501 42 260 4.0 10.0 0.00 0.00 0.00 53 1016.3
20260506180001 42 284 5.0 10.0 0.00 0.00 0.00 54 1016.4
20260506175501 42 281 1.0 11.0 0.00 0.00 0.00 53 1016.4
20260506175001 42 277 4.0 12.0 0.00 0.00 0.00 54 1016.5
20260506174501 42 323 5.0 12.0 0.00 0.00 0.00 54 1016.4
20260506174102 42 290 4.0 9.0 0.00 0.00 0.00 53 1016.5
20260506173600 42 268 3.0 9.0 0.00 0.00 0.00 54 1016.6
20260506173130 42 355 4.0 9.0 0.00 0.00 0.00 54 1016.6
20260506172600 41 299 3.0 9.0 0.00 0.00 0.00 54 1016.5
20260506172104 41 321 3.0 11.0 0.00 0.00 0.00 54 1016.6
20260506171620 41 273 6.0 11.0 0.00 0.00 0.00 54 1016.5
20260506171100 41 301 4.0 10.0 0.00 0.00 0.00 54 1016.7
20260506170559 41 338 2.0 12.0 0.00 0.00 0.00 54 1016.7
20260506170100 41 281 8.0 12.0 0.00 0.00 0.00 53 1016.7
20260506165559 42 279 4.0 12.0 0.00 0.00 0.00 53 1016.7
20260506165059 42 321 3.0 10.0 0.00 0.00 0.00 53 1016.8
20260506164607 42 304 3.0 10.0 0.00 0.00 0.00 53 1016.8